Location: Saint Louis
(38.6272°N, 90.1978°W)
Time: 19:40:27
(UTC-05:00)

ISS - Pass Details

Date: 09 April 2013
Orbit: 402 x 404 km, 51.6° (Epoch: 25 May)

Event Time Altitude Azimuth Distance (km) Brightness Sun altitude
Rises 20:58:12 0° 238° (WSW) 2,357 1.0 -16.8°
Reaches altitude 10° 21:00:19 10° 242° (WSW) 1,496 0.0 -17.2°
Maximum altitude 21:03:39 61° 323° (NW) 480 -2.8 -17.7°
Enters shadow 21:05:54 19° 41° (NE) 1,077 -1.3 -18.1°
